Overview Statistics Trail Chart Weather Telemetry Raw packets
 

This is the latest recevied weather packets stored in our database for station/object WY7ATH-2. If no packets are shown the sender has not sent any weather packets the latest 10 day(s).

<< 7 8 9 10 11 12 13 >>
Time Temp. Humidity Pressure Rain* Wind** Luminosity Snow
1788341787 14.44° C - - 0 mm 0 m/s - -
1788341190 15° C - - 0 mm 0 m/s - -
1788340593 15° C - - 0 mm 0 m/s - -
1788339996 15° C - - 0 mm 2.68 m/s, 305° - -
1788339399 15.56° C - - 0 mm 0.45 m/s, 219° - -
1788338802 16.11° C - - 0 mm 3.58 m/s, 252° - -
1788338202 15.56° C - - 0 mm 1.79 m/s, 297° - -
1788337605 15.56° C - - 0 mm 2.68 m/s, 277° - -
1788337008 15° C - - 0 mm 2.68 m/s, 293° - -
1788336411 14.44° C - - 0 mm 2.24 m/s, 294° - -
1788335814 15° C - - 0 mm 1.79 m/s, 301° - -
1788335217 15° C - - 0 mm 3.58 m/s, 305° - -
1788334616 14.44° C - - 0 mm 0.89 m/s, 281° - -
1788334019 14.44° C - - 0 mm 1.34 m/s, 262° - -
1788332229 14.44° C - - 0 mm 0.89 m/s, 295° - -
1788331632 15° C - - 0 mm 0.45 m/s, 266° - -
1788331031 15° C - - 0 mm 2.24 m/s, 304° - -
1788330434 14.44° C - - 0 mm 1.34 m/s, 287° - -
1788329240 15° C - - 0 mm 0.89 m/s, 323° - -
1788328643 15.56° C - - 0 mm 1.34 m/s, 287° - -
1788328046 15.56° C - - 0 mm 2.24 m/s, 316° - -
1788327446 15.56° C - - 0 mm 3.13 m/s, 309° - -
1788326849 15.56° C - - 0 mm 4.02 m/s, 276° - -
1788326252 14.44° C - - 0 mm 1.79 m/s, 264° - -
1788325655 13.33° C - - 0 mm 0 m/s - -

* Rain latest hour (hover to see other rain measurements)
** Current wind speed in m/s (hover to see current wind gust speed)